User: anonymous   Login
Location: Llanfihangel-Ystrad
(52.1833°N, 4.1667°W)
Time: 18:06:55
(UTC+00:00)
Language:

STARLINK-1175 - Orbit

View from above orbital plane
View from above orbital plane
View from above satellite
View from above satellite

Ground track
Ground track

The orbit data is extracted from the following two-line orbital elements,

1 45097C 20006BF  20152.38998964 -.00021861  00000-0 -75516-4 0  1528
2 45097  53.0015 342.6043 0001222  56.7527  10.2469 15.88814415    10
Epoch (UTC): 31 May 2020 09:21:35
Eccentricity: 0.0001222
inclination: 53.0015°
perigee height: 305 km
apogee height: 306 km
right ascension of ascending node: 342.6043°
argument of perigee: 56.7527°
revolutions per day: 15.88814415
mean anomaly at epoch: 10.2469°
orbit number at epoch: 1

The dashed part of the orbit path shows where the satellite is in the earth's shadow,  

DLR